Wind_Speed
33 33 35 36 38 40 39 37 36 35 33 32 33 34 35 34 33 33 36 40 39 37 37 36 34 32 29 29 31 33 35 36 36 36 38 38 36 33 33 35 31 26 19 10 10 10 11 11 6 2 3 5 7 9 9 8 7 3 2 2 3 3 3 4 5 7 7 6 8 12 13 11 6 9 14 12 14 16 13 12 10 8 9 10 12 17 22 25
36 34 35 37 37 39 38 36 36 35 33 33 33 33 35 35 34 33 34 38 39 38 36 36 36 34 32 29 28 29 30 32 33 37 40 39 36 33 31 33 32 28 23 13 8 10 12 11 4 4 8 8 7 8 8 7 8 5 3 3 4 4 2 2 5 11 10 10 13 14 13 13 11 12 14 8 11 16 12 11 12 13 14 16 20 21 22 24
36 36 35 36 37 39 39 36 34 33 33 33 33 33 35 36 35 33 33 36 39 39 37 36 36 35 33 31 28 26 26 26 28 36 41 40 37 35 31 30 30 27 24 16 10 10 11 10 5 9 13 10 9 9 7 5 7 7 4 2 5 5 1 4 5 13 17 20 18 14 13 13 14 15 13 10 12 12 10 11 12 17 21 22 25 24 23 24
35 36 36 37 37 39 38 34 33 32 32 32 34 34 35 38 36 33 32 34 37 38 37 36 35 36 34 32 29 26 25 20 23 36 39 39 38 35 33 31 29 27 23 18 14 11 11 12 9 11 13 11 11 9 6 6 6 5 5 3 5 5 1 3 4 13 22 25 20 14 12 12 15 14 12 15 11 4 11 16 12 16 23 25 26 25 23 24
34 35 37 38 38 40 37 34 33 32 31 32 34 35 36 38 38 34 32 33 34 36 37 36 35 36 35 33 30 28 23 10 17 35 35 35 37 33 33 32 29 27 24 20 18 14 12 15 13 12 11 8 8 6 6 11 8 3 5 4 3 4 4 1 5 15 23 23 19 16 13 12 14 13 13 15 8 4 13 18 13 14 20 21 23 24 23 25
35 36 38 38 38 39 38 35 33 32 31 31 33 36 37 38 39 35 32 31 32 34 36 36 36 36 35 33 30 28 24 7 5 24 34 35 33 32 31 31 30 27 25 22 21 16 13 16 14 12 10 6 6 5 6 14 12 3 4 3 0 4 7 5 6 14 21 21 18 14 13 14 13 10 10 8 7 7 11 15 14 13 16 17 19 21 23 25
36 37 40 39 39 40 40 37 34 33 32 33 34 37 39 40 38 35 32 30 29 32 34 35 35 35 34 32 29 27 29 19 4 9 29 37 33 32 30 30 32 29 28 25 21 17 15 18 15 13 10 4 5 6 8 14 15 7 4 2 2 5 9 8 8 14 21 20 16 15 14 14 11 7 7 7 8 9 9 11 14 15 17 17 16 17 18 21
37 38 42 41 40 41 41 38 35 35 34 35 36 37 39 40 38 35 33 29 27 29 32 34 34 35 34 32 30 25 28 32 19 8 18 35 36 34 32 30 32 31 29 27 24 19 16 19 19 15 8 6 6 4 8 10 11 9 4 4 6 6 7 9 9 14 19 18 16 15 12 10 10 8 8 11 11 9 8 9 14 19 19 17 16 16 15 18
39 40 44 41 39 40 39 37 36 36 35 36 37 37 38 39 37 35 33 30 27 25 29 33 33 34 32 33 30 22 28 36 32 19 13 28 36 35 34 31 31 31 29 28 26 21 18 20 20 16 8 11 11 6 8 6 6 10 9 9 8 7 8 10 10 13 15 15 16 13 7 6 9 7 6 11 12 11 10 11 15 20 20 18 15 15 16 16
41 41 43 41 39 40 38 38 37 37 36 36 37 37 39 39 37 35 33 29 26 24 26 29 31 33 30 32 27 17 28 37 34 27 16 23 35 35 34 32 31 32 28 27 27 23 22 23 18 16 12 11 11 8 9 5 7 12 12 10 9 10 9 10 9 11 12 12 12 10 5 5 7 5 3 10 16 15 14 14 17 19 19 18 16 16 16 16
43 43 43 42 42 41 39 39 38 38 37 36 37 38 39 39 36 34 32 29 26 25 26 26 28 32 30 32 27 16 26 34 33 29 20 23 32 33 33 32 31 31 29 28 27 26 26 24 18 15 12 6 6 8 10 10 11 15 17 9 5 7 6 8 8 10 10 7 8 9 5 2 4 3 5 15 20 17 17 18 18 19 17 17 16 16 17 17
45 45 45 44 44 44 41 40 40 39 37 36 37 38 37 36 34 32 31 28 26 25 26 26 25 28 30 30 30 26 23 27 31 26 21 23 26 28 30 30 30 29 29 26 25 26 25 23 20 18 13 6 3 4 7 9 14 21 18 7 1 3 4 6 7 7 7 5 8 10 4 3 2 6 9 17 22 19 18 20 20 19 17 16 16 16 17 17
46 46 45 44 45 44 42 41 40 39 38 38 37 38 36 34 32 31 30 28 25 24 24 25 23 25 28 24 29 33 23 22 31 27 21 22 21 22 24 27 28 25 23 22 22 24 24 23 20 21 19 9 2 2 5 5 16 16 9 6 3 2 1 6 6 6 5 6 9 8 1 5 7 10 11 16 22 21 18 20 21 20 19 18 17 17 17 17
48 49 46 45 44 45 44 42 41 40 39 38 38 38 36 33 31 29 28 27 24 22 21 22 24 26 27 20 26 35 23 17 28 30 23 21 20 19 19 21 23 22 20 20 23 23 22 22 20 19 18 11 4 3 5 2 10 8 3 4 4 3 3 4 5 7 5 4 8 6 2 5 7 8 12 17 21 21 19 19 20 21 21 20 20 19 18 18
51 51 49 47 46 46 46 43 42 41 39 38 39 38 35 33 30 28 27 25 22 21 20 23 25 23 19 15 21 29 23 17 23 29 27 24 23 20 19 19 20 22 21 22 25 21 18 21 20 15 10 10 7 2 3 1 2 4 4 2 1 4 3 4 3 8 5 3 6 5 2 6 6 6 13 17 19 19 20 18 17 20 21 22 21 22 21 20
53 52 51 49 47 47 47 44 42 42 41 40 39 36 34 31 29 28 25 23 21 20 22 24 24 18 9 7 14 19 22 22 22 27 29 27 24 23 22 19 19 20 21 24 24 16 15 19 18 13 7 6 5 3 2 0 1 1 4 4 4 5 3 1 3 5 5 3 4 3 2 3 4 8 13 15 18 18 18 18 17 18 20 23 23 23 23 22
54 53 53 52 50 49 47 45 43 43 42 41 39 36 34 31 30 28 24 24 21 20 25 25 21 16 6 6 13 20 23 22 24 30 33 27 22 24 21 19 21 20 21 25 22 13 12 16 13 9 6 4 3 5 3 4 5 2 2 3 4 5 5 3 2 4 5 4 4 3 3 4 6 7 15 16 17 17 17 18 19 19 19 22 24 24 24 24
56 55 55 54 52 50 49 47 45 44 43 42 40 38 35 31 30 27 26 27 25 22 23 21 18 11 5 10 18 24 25 24 30 36 36 29 23 23 19 18 22 21 19 19 17 14 11 11 9 4 4 5 3 5 5 6 6 4 4 3 2 3 5 6 2 5 7 4 5 5 4 7 7 5 13 16 17 19 20 20 20 22 21 20 23 25 25 25
57 56 56 55 53 53 51 48 47 46 46 44 42 40 37 34 30 26 28 31 28 19 10 20 24 7 3 18 25 24 25 28 35 35 34 30 23 22 18 16 21 20 16 11 10 14 11 6 7 5 5 7 6 6 6 7 7 7 6 5 5 4 3 4 3 3 7 5 4 7 6 7 6 7 10 14 17 19 22 20 19 22 22 21 21 22 22 23
57 56 57 55 54 55 51 50 50 49 51 48 48 45 36 32 21 17 29 32 32 16 1 27 35 3 2 21 29 25 25 29 34 33 32 29 24 23 18 15 18 17 12 7 6 13 12 5 5 7 6 7 7 7 7 7 6 8 6 4 6 6 2 2 2 3 4 5 5 7 6 7 8 7 10 16 17 16 19 18 18 21 22 24 22 21 20 19
58 58 58 56 57 56 52 53 52 52 54 52 56 48 38 37 20 21 36 27 31 17 2 32 35 3 3 26 30 30 27 24 30 35 31 28 27 22 17 15 14 10 10 10 8 10 11 6 6 7 7 8 8 7 7 7 4 5 6 5 4 5 3 2 1 3 1 3 5 4 4 8 8 7 11 15 12 13 20 20 20 21 21 23 24 22 20 17
59 59 60 60 59 56 53 55 53 54 53 51 56 44 43 49 28 37 45 19 25 19 4 34 30 2 8 25 29 33 29 21 24 34 32 29 27 19 17 15 9 7 8 9 7 7 7 6 7 9 8 8 7 8 8 8 5 5 5 6 4 4 3 1 2 2 2 2 3 1 5 9 8 7 9 13 15 18 25 25 22 23 21 22 23 22 22 21
60 61 63 62 59 56 55 56 54 56 53 54 55 40 42 41 20 37 42 17 20 18 7 32 27 6 14 23 29 34 28 20 21 31 35 32 27 22 20 13 9 9 8 8 6 6 5 6 7 11 10 8 7 9 9 6 4 4 5 6 5 5 5 1 2 2 2 2 1 2 2 6 6 5 7 14 21 21 25 26 24 24 24 23 23 22 23 24
62 63 63 60 57 56 56 55 55 56 54 54 48 36 40 30 14 37 36 14 10 13 12 32 26 14 19 23 29 33 26 20 23 33 38 35 28 23 19 13 11 10 10 10 8 5 5 6 8 11 10 8 7 8 8 6 4 3 6 7 5 6 5 3 3 2 3 2 1 4 3 6 5 6 8 10 15 17 20 24 22 21 22 22 22 22 23 24
63 63 60 58 57 57 57 54 56 55 52 51 40 33 40 26 18 41 32 10 3 5 11 28 23 16 21 23 24 27 24 17 22 34 39 36 30 21 15 16 14 10 13 13 8 5 5 6 8 9 10 9 7 6 7 8 4 3 5 7 9 10 6 6 7 6 4 3 2 3 2 5 4 6 10 6 6 9 12 17 20 20 20 20 21 22 22 23
64 63 59 59 58 59 57 51 53 53 48 47 40 36 38 30 29 40 24 6 1 2 9 23 20 14 20 22 21 23 18 10 18 34 37 32 30 22 12 13 11 9 14 12 5 3 3 3 5 7 11 10 7 6 7 8 5 2 4 5 9 10 9 11 9 6 3 3 3 4 5 5 5 4 9 6 6 7 6 9 16 19 19 20 21 21 22 23
65 62 61 61 61 64 58 51 52 53 47 44 40 38 38 37 36 29 13 3 3 6 10 16 15 16 20 23 26 21 9 11 18 28 34 26 25 24 13 8 7 9 15 11 5 2 1 4 3 5 10 9 7 6 6 8 7 3 4 6 11 11 10 11 9 4 3 4 2 4 4 2 4 6 6 4 7 6 5 7 10 15 17 17 18 19 20 22
65 63 63 63 64 64 57 54 57 55 50 47 44 43 46 46 34 16 6 3 5 7 8 11 12 17 21 25 25 13 10 21 16 18 32 23 18 21 11 7 9 7 10 10 7 2 1 6 6 6 8 7 6 4 4 8 6 4 4 7 10 9 9 8 7 4 2 4 1 5 2 2 5 6 4 3 6 6 8 9 10 14 17 16 16 17 18 19
65 64 64 64 63 56 49 52 56 49 45 47 47 47 51 44 25 8 3 3 6 6 8 12 11 14 19 19 15 9 16 22 11 17 32 20 14 16 8 11 12 5 3 5 6 2 2 4 4 4 6 5 5 3 4 6 4 4 5 7 6 6 7 6 5 5 3 3 4 7 2 2 5 5 2 2 3 7 9 8 9 13 17 16 16 16 16 17
65 64 64 64 61 51 44 46 47 42 43 50 50 49 48 32 13 5 4 4 5 5 9 12 10 15 19 11 5 7 11 9 11 23 23 13 14 14 9 15 14 5 5 4 3 2 3 0 1 1 3 4 5 3 1 4 7 8 7 8 7 6 5 4 3 5 4 1 6 6 1 3 2 5 3 4 4 7 7 5 6 11 16 17 16 16 16 15
64 63 63 63 58 49 45 46 46 46 49 51 47 43 34 15 4 5 7 7 6 4 7 9 7 13 18 11 5 7 5 4 14 22 13 7 10 9 9 12 9 4 3 4 2 3 4 2 1 1 1 1 6 5 5 3 7 8 6 6 5 4 4 4 4 3 3 4 6 4 1 3 3 6 5 5 6 6 8 7 8 11 16 18 16 15 14 14
63 62 63 60 51 44 45 47 50 53 52 47 43 35 20 7 3 4 6 9 7 4 6 8 9 11 14 12 7 6 4 4 11 16 11 7 5 6 7 7 7 7 6 5 3 2 4 3 3 3 3 1 4 4 4 4 4 6 6 7 6 2 2 1 2 1 3 5 3 2 1 2 5 7 7 7 7 6 8 12 14 17 20 19 16 14 13 12
63 62 62 56 46 40 41 45 52 57 51 43 39 25 9 6 8 4 6 7 6 8 9 11 14 14 14 11 6 5 5 4 10 12 10 8 5 5 5 4 7 7 4 5 4 2 1 4 4 2 3 2 2 4 4 1 1 5 7 6 5 4 3 2 3 1 3 4 3 2 1 2 4 6 7 9 7 6 8 13 18 23 24 20 17 15 13 12
63 62 58 50 42 40 39 45 56 56 46 38 29 14 6 8 7 5 7 6 5 10 10 10 13 14 13 9 7 7 5 3 9 11 9 8 7 7 6 7 10 7 4 4 4 4 4 1 2 1 0 1 1 3 5 6 5 4 5 6 6 5 5 4 4 3 3 2 2 2 1 4 4 3 6 6 3 1 4 11 17 20 21 19 17 15 14 14
61 59 53 43 39 40 39 48 59 52 41 33 16 6 9 10 6 6 7 5 6 8 10 13 15 13 9 6 6 9 4 3 7 8 9 10 9 10 7 7 10 8 7 6 4 5 6 2 3 3 1 0 1 2 2 7 4 3 3 6 4 5 5 4 4 5 5 1 1 2 3 4 4 4 5 2 2 4 7 11 15 17 18 19 19 18 17 16
59 55 47 38 39 40 40 51 56 46 39 27 9 6 9 7 6 8 8 8 10 12 14 14 12 10 7 4 5 9 4 4 8 7 6 7 7 10 9 7 10 9 8 7 3 3 6 2 4 4 2 1 0 2 1 3 4 1 3 4 5 5 7 5 2 1 4 2 2 2 3 4 3 4 4 2 1 1 4 8 14 17 19 20 20 19 19 18
56 50 42 38 40 40 43 53 52 43 34 17 7 9 6 2 5 7 8 12 16 18 16 11 8 9 10 6 8 12 6 6 10 8 7 7 6 10 10 8 12 11 8 8 3 2 6 1 4 2 1 2 3 2 3 3 3 4 4 6 4 3 4 5 2 2 3 2 3 2 4 4 1 2 4 3 4 6 4 5 9 14 18 20 20 20 19 19
53 46 39 36 40 41 45 51 48 39 24 9 7 9 2 1 4 7 12 15 18 18 13 9 7 7 10 10 10 13 10 8 10 8 8 7 4 10 13 8 11 13 13 12 6 2 5 3 3 1 1 3 4 2 1 3 2 4 4 3 4 2 1 2 3 2 2 3 4 3 3 3 4 4 4 5 8 9 8 7 7 11 17 20 20 20 20 19
50 39 28 31 38 39 44 48 44 32 13 5 8 5 2 3 3 12 24 20 15 15 11 9 9 6 8 10 10 12 11 9 11 7 6 7 3 8 15 9 7 13 15 13 7 3 4 4 2 2 2 1 3 2 4 2 2 2 2 2 3 3 4 3 3 4 3 4 4 2 1 3 6 6 7 9 12 11 10 9 9 13 20 23 23 23 22 21
46 27 15 30 37 34 42 43 34 20 8 6 7 2 3 4 1 17 35 27 12 9 9 9 10 9 9 9 9 11 8 6 11 7 4 7 3 5 13 10 6 11 12 9 6 4 3 3 3 1 2 1 1 2 5 6 3 2 2 3 1 1 3 2 2 3 4 4 4 2 2 5 6 5 8 11 11 11 12 10 10 16 22 24 25 25 24 23
36 13 10 31 33 33 42 33 19 11 5 6 5 1 3 4 3 13 30 30 15 4 7 10 9 9 9 10 10 11 7 6 10 6 2 8 5 2 11 13 10 11 8 5 5 4 2 3 5 3 0 2 3 3 2 4 4 3 4 6 5 3 4 3 3 2 2 3 4 4 3 7 6 4 5 8 7 8 12 13 12 18 24 25 25 25 24 23
21 5 14 31 31 39 41 20 9 9 4 5 4 2 5 6 6 8 15 22 14 4 6 8 6 7 8 8 10 9 7 6 10 8 3 7 7 2 10 18 18 16 10 4 4 4 4 4 4 2 2 4 4 3 2 2 2 3 2 3 4 4 4 5 5 4 1 1 2 4 2 6 6 4 4 6 6 7 14 17 15 19 24 25 25 24 23 23
12 10 21 30 32 42 32 9 7 7 2 4 4 4 5 5 6 7 7 12 9 4 6 5 6 9 7 7 9 9 8 6 7 8 4 5 6 2 8 21 24 17 9 4 3 4 5 4 4 2 1 3 4 3 2 1 1 2 3 3 4 3 3 5 5 4 3 3 2 2 3 6 6 5 5 7 7 5 12 19 18 19 23 25 25 24 23 23
17 21 23 28 34 36 20 6 10 10 4 4 5 4 4 3 4 8 8 9 7 5 6 5 7 9 6 7 11 11 11 6 4 6 4 4 6 1 5 22 25 15 8 7 8 7 4 3 4 4 2 2 3 2 2 2 2 3 3 2 3 4 5 4 2 3 1 4 6 5 5 7 6 5 5 6 5 1 11 19 20 21 23 25 25 25 25 25
19 16 17 27 34 26 9 2 8 9 5 6 7 6 5 3 2 6 8 6 3 5 6 5 8 9 7 8 9 8 9 6 5 6 3 2 3 2 2 19 24 16 11 13 14 12 5 3 5 5 5 6 5 5 4 3 2 1 1 3 4 6 8 5 2 3 3 4 5 6 6 7 6 5 5 5 4 1 8 15 19 21 25 27 27 27 27 27
13 6 10 17 21 14 5 3 3 6 6 6 6 6 6 5 1 4 7 4 1 5 6 3 8 10 8 10 10 8 7 3 3 6 4 4 3 2 1 10 13 12 12 15 20 14 4 2 6 7 9 11 8 6 5 7 6 5 7 9 8 8 10 7 4 4 5 3 4 6 7 7 7 5 5 6 3 3 6 12 18 21 24 27 28 28 28 29
9 6 10 10 9 8 6 5 4 5 6 7 6 4 6 8 3 2 4 1 2 6 5 2 6 10 11 14 12 10 8 4 5 8 7 5 2 1 2 4 5 7 8 14 20 13 4 3 7 8 10 9 7 7 8 11 11 12 12 11 9 7 7 8 7 7 5 4 4 8 7 7 7 6 7 7 5 5 6 12 20 23 26 28 28 28 28 29
6 7 14 12 6 6 7 7 6 7 7 7 4 4 8 10 7 4 2 2 3 5 4 2 7 12 16 16 11 9 8 5 5 8 6 5 4 3 3 4 3 2 3 9 14 7 4 5 6 6 7 3 4 7 10 11 10 11 12 13 11 10 10 10 12 10 7 6 10 12 10 10 8 7 8 8 8 11 14 18 21 22 24 27 27 29 30 30
6 6 11 11 5 5 8 8 7 8 8 7 4 5 11 13 9 5 2 3 3 1 3 6 9 11 15 15 11 10 10 9 8 7 6 6 6 5 3 2 0 1 2 5 6 2 3 4 3 5 6 1 1 5 9 10 8 7 10 13 13 13 14 14 15 14 11 11 13 12 9 10 8 8 9 9 10 14 15 16 18 19 23 26 28 30 31 33
6 6 8 8 4 7 11 9 7 8 7 6 5 4 8 12 10 5 2 4 6 3 3 9 11 9 10 12 12 11 14 14 11 9 8 8 6 4 4 5 3 1 3 3 1 1 2 3 1 4 4 1 3 3 3 7 7 7 7 8 10 12 13 14 14 13 10 9 11 8 7 10 7 9 11 12 11 9 10 15 20 22 24 27 29 31 32 35
8 8 12 10 4 6 10 5 5 7 5 5 5 5 7 10 10 7 3 2 5 6 5 9 11 8 6 9 10 11 13 11 12 16 18 16 14 9 3 5 9 7 3 2 2 2 2 1 1 5 4 2 4 4 3 4 4 3 5 8 12 13 12 13 13 11 9 10 11 8 8 11 5 8 11 12 9 11 13 19 23 23 24 27 30 32 33 35
12 14 17 12 3 1 7 5 4 7 6 5 5 5 6 7 7 8 5 4 3 7 12 14 12 7 6 8 8 9 12 12 15 23 23 18 16 11 7 12 17 12 7 5 2 2 4 4 2 3 4 2 5 2 3 6 3 4 7 10 15 14 11 9 8 9 10 10 9 9 11 11 4 7 9 7 8 12 17 20 22 23 26 29 31 31 32 33
Wind_Direction
225 220 215 212 211 208 200 197 196 194 194 192 194 198 200 199 199 202 205 206 206 205 204 205 204 204 205 206 208 210 212 215 218 219 220 219 215 213 213 215 217 223 234 238 233 254 293 288 257 233 250 249 244 224 213 210 208 195 128 149 235 226 200 223 196 168 150 150 171 166 154 141 130 125 124 116 121 119 114 113 112 125 121 134 147 150 166 167
222 221 216 212 210 206 199 196 197 196 196 194 193 196 199 199 199 200 203 206 207 206 205 207 205 205 206 207 208 209 212 214 219 222 221 219 214 213 213 213 219 225 233 238 237 259 286 283 254 299 276 250 245 218 211 212 198 196 143 157 228 213 217 276 163 151 139 151 164 161 160 155 157 149 138 130 128 126 109 104 116 120 120 136 149 155 169 169
219 218 217 213 209 206 201 196 196 196 196 198 195 194 198 199 199 200 203 206 206 207 206 207 207 206 207 207 209 208 210 212 218 224 222 219 216 215 214 213 218 224 231 234 240 251 267 265 246 292 283 252 237 215 205 198 195 212 177 167 244 220 241 9 135 160 153 151 158 165 170 163 161 157 150 152 144 141 138 136 133 132 139 148 158 164 171 173
217 215 217 214 210 209 203 196 197 198 196 198 196 194 196 198 199 199 204 206 206 208 207 206 207 207 208 208 210 208 207 211 225 225 220 220 219 216 217 218 219 223 230 232 236 240 250 252 246 276 278 254 238 218 208 199 191 206 179 188 241 204 140 13 108 152 152 149 155 158 153 151 159 164 158 149 140 167 179 172 168 160 159 158 164 171 174 177
216 213 214 212 211 209 203 197 198 198 197 199 197 195 196 197 198 198 202 206 205 207 208 207 207 208 209 209 210 209 203 208 236 228 221 218 218 216 216 219 221 223 228 232 234 235 243 248 257 274 264 249 235 209 223 216 200 213 201 196 232 190 153 161 114 135 149 147 146 139 132 145 158 166 161 154 156 204 193 193 196 181 175 169 170 175 178 181
214 212 212 209 208 207 202 199 198 197 198 198 197 194 196 198 197 195 200 205 204 206 207 207 207 208 209 211 212 208 201 192 250 227 222 217 214 213 213 217 221 224 225 229 235 232 238 246 263 270 240 233 231 201 226 221 210 232 222 186 217 193 160 162 128 133 151 147 143 142 139 147 150 163 164 159 172 166 175 191 197 191 183 177 173 176 182 185
214 211 211 208 207 207 202 197 197 197 197 195 194 193 196 198 195 193 197 202 201 203 207 207 207 207 207 208 210 207 206 210 226 222 217 215 212 210 210 215 219 225 223 224 233 225 230 248 262 257 227 223 237 218 235 225 209 206 235 213 135 159 153 152 127 132 151 147 147 151 146 153 151 161 158 136 141 142 148 167 182 187 179 176 176 177 184 189
214 211 211 208 205 205 200 196 195 196 196 193 192 193 195 197 195 191 193 197 199 201 205 206 206 206 206 205 202 202 209 215 223 239 213 208 208 208 209 214 218 224 222 221 229 220 229 251 256 248 223 216 220 218 238 227 209 206 220 195 147 141 154 154 132 128 140 138 144 147 139 158 160 158 156 149 144 141 148 145 161 174 172 174 180 180 183 188
213 210 209 205 203 203 199 195 194 195 194 192 192 192 194 195 192 188 189 193 196 200 204 205 206 204 204 205 200 201 214 215 219 234 229 204 204 206 209 214 216 221 219 220 225 216 229 247 244 236 224 225 222 240 249 213 211 214 190 175 159 147 157 156 139 128 132 134 145 143 117 136 155 154 154 169 166 152 157 152 156 166 169 173 179 185 185 186
212 209 207 202 201 201 197 194 194 195 193 192 193 191 192 193 191 189 189 191 192 195 200 202 205 203 201 202 197 204 219 216 215 225 231 203 200 202 206 212 214 217 216 219 220 211 223 234 229 233 246 240 222 248 262 219 221 206 165 150 152 144 151 157 142 133 134 135 149 148 124 133 150 159 172 184 176 163 161 158 162 169 172 175 180 188 191 190
211 206 205 201 200 199 197 196 194 194 193 192 193 192 192 191 190 188 186 187 190 191 198 200 201 201 199 198 195 205 217 215 214 218 216 195 194 198 202 206 210 214 214 216 217 210 221 228 226 244 257 245 226 264 272 243 215 173 140 111 133 137 133 152 140 139 141 132 151 142 117 95 117 171 198 184 177 174 171 162 168 177 178 181 184 188 195 197
210 205 204 201 197 197 198 197 193 192 193 191 192 192 190 187 186 186 183 185 190 195 202 204 203 201 197 197 202 210 211 208 206 202 189 180 184 191 196 202 207 210 211 214 215 211 220 228 234 254 254 233 232 275 280 237 179 155 142 112 128 108 101 159 148 151 154 136 150 132 93 336 241 218 201 182 179 179 180 173 174 181 182 185 188 192 197 199
209 205 204 199 195 197 197 194 190 191 191 189 191 190 186 183 183 184 185 187 191 197 203 207 210 202 194 196 207 211 205 198 199 191 171 166 171 177 184 195 199 201 205 211 214 215 224 231 241 255 251 247 250 249 287 211 157 152 147 127 131 64 89 193 169 162 150 145 160 137 124 273 254 232 200 180 180 179 186 187 185 187 185 187 192 197 200 201
207 204 202 198 197 196 194 190 189 190 189 187 188 188 185 182 183 184 183 185 186 194 206 211 210 199 192 198 210 210 204 193 198 197 185 171 165 162 169 181 184 188 194 202 214 220 230 237 244 251 246 240 244 282 306 208 154 148 114 129 138 136 217 237 172 155 134 169 178 131 157 252 270 235 187 178 183 183 190 194 195 194 190 191 195 200 204 205
205 202 199 198 197 196 193 189 188 189 186 184 182 182 180 178 179 178 177 178 182 193 197 194 192 185 186 203 214 211 205 198 195 196 190 173 164 158 162 171 176 186 193 203 215 224 233 237 236 239 238 221 221 301 340 302 163 139 134 183 187 154 204 282 189 166 144 182 185 128 179 261 281 213 175 173 181 187 193 196 200 199 194 193 197 202 206 208
202 199 198 197 194 195 192 187 187 185 182 180 177 175 174 173 172 170 171 172 176 188 183 175 173 168 165 189 198 198 198 201 194 185 178 167 160 154 155 167 178 192 199 205 215 223 231 229 227 229 220 197 183 116 83 191 234 181 139 170 192 160 169 251 238 204 163 144 184 155 166 249 269 201 179 174 180 187 192 195 200 201 197 195 199 205 207 208
199 196 196 194 192 192 187 184 183 178 175 174 172 170 167 166 165 163 166 169 166 169 169 162 159 158 155 160 172 184 191 194 184 173 168 162 156 153 158 169 180 197 204 205 214 223 221 214 214 227 216 195 153 121 134 195 207 215 117 148 192 163 156 173 273 230 171 137 192 182 162 238 271 205 187 188 189 193 198 202 206 203 200 200 201 207 210 212
196 193 193 192 191 188 184 183 177 172 172 168 165 164 160 159 161 158 158 160 151 145 154 154 145 143 192 198 183 185 189 180 171 168 166 165 163 161 168 175 179 195 204 205 218 223 216 202 193 208 204 204 192 136 157 202 192 171 154 150 167 146 161 177 204 207 171 148 188 176 205 250 282 248 204 201 197 200 205 206 208 204 202 203 205 208 213 216
192 191 191 190 188 185 184 180 172 171 170 164 161 157 150 149 150 152 155 156 150 140 156 170 163 145 238 199 187 181 183 174 168 170 171 173 173 170 171 176 181 190 194 197 217 212 201 180 182 198 200 203 192 149 170 199 176 169 172 149 150 158 197 198 220 220 159 140 188 187 207 232 248 259 230 209 202 207 211 206 203 203 202 204 206 209 213 217
190 190 190 187 183 181 180 176 172 173 170 163 160 153 144 141 133 141 155 164 167 153 227 180 171 136 35 175 177 173 173 174 172 173 174 175 171 169 170 171 176 182 186 181 199 203 191 176 199 202 192 194 184 159 185 212 182 166 163 149 160 156 192 230 254 277 139 136 212 201 205 236 228 239 237 216 206 213 219 214 208 205 204 205 205 208 212 219
189 189 187 183 180 177 175 174 174 175 173 169 165 158 155 155 152 167 162 168 179 160 57 177 169 42 146 167 173 172 161 164 176 175 172 172 167 166 171 170 168 179 193 184 180 189 188 199 214 198 180 184 186 176 203 232 215 176 168 168 187 164 180 235 210 272 59 146 233 205 204 252 240 237 242 217 201 215 218 212 210 209 207 206 206 208 210 216
187 187 185 181 178 175 173 174 175 175 174 172 169 167 169 167 175 180 163 151 179 168 130 176 174 326 180 167 172 172 158 151 173 177 174 173 171 169 170 174 176 178 191 190 180 178 193 217 211 199 188 176 183 191 211 231 211 197 186 170 203 195 160 352 337 329 30 145 258 226 198 248 255 252 246 209 196 212 212 205 205 205 205 205 205 207 207 208
185 184 182 178 175 173 173 174 173 173 174 174 173 175 174 170 182 176 155 120 171 179 165 175 180 198 175 167 170 171 162 154 165 174 176 173 172 174 170 172 180 180 195 208 193 174 198 224 203 198 193 171 183 202 211 230 214 189 183 175 200 190 158 197 277 319 39 122 169 110 190 271 276 270 263 219 207 212 212 209 209 208 209 211 208 209 210 207
182 181 177 174 172 170 172 172 170 172 176 176 175 179 174 169 176 163 143 88 160 191 193 181 181 182 175 167 168 170 166 162 167 171 174 173 169 170 172 169 168 179 204 214 203 184 211 217 184 187 197 180 181 204 201 207 236 211 183 185 182 177 176 175 167 136 27 14 92 83 21 309 259 237 260 231 209 214 217 213 215 217 216 216 214 213 213 209
180 177 172 171 171 169 169 169 169 171 174 174 175 181 177 174 172 159 142 70 124 191 193 185 191 195 179 169 170 171 162 160 172 173 173 173 169 163 167 172 172 184 200 209 208 188 221 214 168 173 197 191 182 204 196 183 215 240 200 194 175 168 152 123 126 109 57 330 269 105 65 294 274 232 241 229 193 210 213 207 207 208 206 206 207 204 202 201
176 172 170 171 170 167 166 167 170 170 170 174 177 180 178 170 157 151 137 61 93 159 164 177 191 193 178 175 171 163 156 158 174 174 173 174 173 165 161 172 177 184 188 206 222 185 238 207 161 177 189 191 187 203 205 172 159 222 233 191 154 141 127 132 136 116 120 223 263 109 150 259 312 275 245 219 194 211 212 211 208 202 199 199 199 197 197 198
172 170 171 171 168 168 168 167 169 170 172 175 174 172 168 158 151 145 126 59 168 159 160 173 180 176 175 175 166 159 159 159 163 174 176 173 172 171 174 176 170 174 180 198 219 201 224 179 184 190 179 185 184 194 211 160 137 214 233 142 132 130 136 149 141 123 168 181 355 34 131 209 289 275 268 186 179 220 242 240 230 215 211 209 208 209 210 211
170 169 170 169 170 172 170 167 169 173 176 173 167 164 160 158 161 155 124 131 155 145 160 175 171 170 172 169 166 159 146 151 151 178 180 173 167 173 185 183 164 157 175 197 207 212 182 181 197 182 166 184 189 197 200 145 130 232 206 132 136 138 141 146 128 111 105 114 322 299 146 162 267 274 316 100 159 224 238 234 234 219 212 212 214 215 219 221
168 168 168 168 170 172 172 171 171 173 173 165 160 164 164 167 173 160 115 154 144 139 158 163 165 170 167 164 166 144 143 155 154 172 179 179 171 173 181 179 166 110 100 189 187 215 242 192 204 173 159 185 188 203 194 146 132 191 143 97 89 84 98 109 109 105 70 95 226 252 189 159 267 281 320 85 183 223 230 236 230 212 203 204 208 210 216 224
167 168 167 168 169 170 172 171 170 170 167 161 162 168 170 174 173 151 187 178 136 147 156 153 163 168 160 154 157 144 146 154 138 153 173 185 173 172 163 169 168 107 49 71 109 248 275 341 351 139 159 174 151 132 192 149 136 129 99 75 64 43 52 62 56 91 92 251 243 248 225 132 258 278 225 196 219 205 206 234 225 204 195 194 201 208 217 224
168 168 169 170 169 171 170 167 170 170 166 163 166 169 169 172 168 161 174 150 127 144 149 143 155 162 161 157 155 157 135 99 138 150 167 183 174 173 152 160 168 142 93 81 81 322 344 15 335 351 330 141 118 74 21 72 120 107 92 101 90 23 17 28 2 54 132 242 257 262 271 129 198 261 243 237 249 204 186 202 201 191 186 188 196 208 217 223
167 167 169 170 169 172 172 169 170 170 167 166 166 167 165 157 186 187 149 141 148 176 165 155 157 162 165 159 146 149 123 117 157 158 160 165 177 188 174 175 174 169 179 162 136 7 10 328 307 347 319 245 121 91 35 18 58 89 116 124 108 54 29 48 269 253 203 238 270 282 268 184 226 251 254 259 263 235 212 209 197 184 181 186 194 202 209 214
166 166 167 171 171 173 176 172 169 171 173 171 166 167 171 162 176 165 138 162 175 173 168 160 161 162 159 151 146 151 126 142 171 163 160 158 161 201 219 207 167 158 179 165 127 88 19 310 318 4 316 266 156 140 151 200 116 129 145 141 133 125 113 195 236 264 234 247 281 281 268 247 261 268 253 246 253 256 240 218 199 188 186 188 190 193 197 200
166 166 165 169 171 173 176 172 171 175 177 172 167 172 175 169 171 129 143 180 160 149 154 149 149 150 151 152 161 159 117 129 174 160 156 160 168 199 221 205 180 147 118 154 159 158 157 251 263 193 237 254 221 171 160 149 145 170 163 136 144 153 149 186 204 190 206 249 287 279 241 189 198 262 257 245 255 227 194 194 189 187 187 185 182 184 188 191
165 167 165 164 167 172 175 173 175 177 174 169 172 184 169 169 171 140 152 165 131 133 138 138 141 143 152 154 159 169 144 145 177 162 165 177 180 187 189 194 188 159 142 169 184 167 158 191 276 297 320 180 201 254 130 119 142 227 145 116 155 176 144 144 177 173 162 147 272 231 230 209 201 264 276 297 44 92 131 157 163 169 175 177 179 185 188 190
162 164 163 161 164 169 175 177 178 177 172 169 174 188 182 180 172 158 159 154 144 142 135 137 146 148 152 137 157 185 176 140 168 169 179 188 187 189 186 185 183 170 163 167 159 161 159 183 314 341 356 8 312 289 346 125 172 187 121 163 204 160 117 118 176 126 101 137 238 209 244 287 309 278 281 355 14 117 125 145 154 161 169 176 183 187 189 193
158 159 158 159 166 172 178 179 178 175 176 181 186 181 182 179 163 145 136 142 141 141 138 144 165 162 159 157 171 183 167 141 171 177 174 181 194 193 191 192 186 179 169 157 157 195 152 127 321 15 76 322 330 330 4 36 116 120 155 199 188 96 87 112 136 21 70 175 262 217 215 267 283 247 289 311 256 243 229 189 167 166 172 179 185 188 190 194
154 154 152 157 169 176 179 179 177 176 181 200 195 180 143 119 168 129 128 138 140 143 147 153 168 175 171 168 172 177 167 161 178 180 171 179 203 189 183 193 191 183 174 160 161 197 135 109 307 325 199 279 340 38 110 1 41 133 173 176 124 128 204 133 137 161 156 204 266 273 239 235 205 213 247 240 231 230 224 212 193 184 184 183 184 185 188 191
148 148 150 163 172 176 177 177 176 176 186 204 186 190 142 147 182 143 142 143 143 150 157 162 163 168 174 168 162 170 172 170 172 173 176 183 215 192 183 185 187 183 179 167 163 180 133 125 229 284 279 259 2 48 175 221 344 60 76 82 86 135 169 172 162 156 159 193 231 275 308 253 232 212 195 207 219 214 203 203 204 198 192 187 185 184 188 191
147 143 153 172 174 175 175 173 171 176 201 193 174 209 165 146 175 154 150 149 148 155 163 169 166 158 160 161 156 166 171 160 167 176 187 176 178 202 191 183 172 177 174 159 152 162 133 120 167 263 335 147 180 218 187 184 181 124 122 160 191 111 129 161 187 138 132 161 192 199 244 264 252 205 190 209 220 210 197 198 202 199 194 191 190 190 191 193
149 136 152 171 172 171 166 164 170 184 196 178 173 254 169 128 116 153 153 152 150 147 154 157 161 154 151 156 160 168 161 145 167 176 176 173 165 200 198 185 165 164 157 129 146 163 129 116 141 149 146 178 223 256 210 196 186 158 171 183 184 162 127 149 223 234 119 147 175 166 214 270 257 200 203 223 231 220 204 197 195 197 196 194 194 196 196 194
151 112 156 169 168 164 161 159 181 186 173 176 178 149 146 131 124 144 153 153 149 123 134 138 141 145 150 157 157 159 149 147 175 177 161 181 172 174 195 180 165 163 157 141 169 153 105 103 114 123 193 210 254 276 235 224 176 133 192 192 159 146 124 144 200 231 170 169 167 134 177 274 261 223 227 245 259 241 212 201 194 194 195 195 196 198 199 197
135 105 150 169 166 162 163 163 170 179 223 186 148 101 131 129 129 140 146 152 151 135 133 136 147 151 155 154 148 154 154 150 177 172 138 170 176 191 190 173 164 162 159 156 176 147 110 99 101 88 325 312 314 312 314 303 121 147 227 184 149 167 142 145 176 172 158 195 159 135 235 269 274 270 269 275 286 254 208 202 196 190 192 195 196 198 199 199
117 110 137 165 167 166 173 180 167 181 209 158 122 106 128 97 122 149 154 156 157 146 139 147 158 152 146 151 153 163 163 151 174 172 134 158 178 275 182 170 165 163 174 183 178 169 149 115 118 117 88 1 335 307 290 272 197 198 225 170 132 112 105 119 154 109 139 216 163 156 233 252 271 298 314 319 332 222 199 201 197 190 189 193 196 198 200 199
119 108 126 157 169 175 191 209 168 174 167 136 137 149 135 80 89 133 141 147 141 133 136 149 149 132 121 139 144 156 162 153 166 170 131 131 170 352 170 175 172 171 185 185 167 157 150 146 144 135 150 181 200 207 204 192 182 215 209 161 158 146 146 166 166 129 218 233 155 160 225 249 282 316 325 328 353 149 192 194 195 195 194 195 197 199 201 200
137 119 122 153 176 193 240 290 175 164 160 143 146 159 134 118 92 82 111 123 76 112 113 126 131 117 125 143 142 158 171 139 133 159 143 141 172 340 141 176 175 170 176 173 160 148 121 174 175 168 181 191 193 193 163 135 148 193 200 188 188 187 176 163 140 170 199 190 177 212 225 242 275 291 280 276 260 218 199 185 190 196 196 198 199 200 201 200
150 160 154 155 177 200 232 257 224 178 172 159 156 167 140 136 143 59 77 79 161 127 84 55 141 140 154 156 151 166 168 113 119 152 146 141 153 16 98 126 137 148 157 165 161 146 102 202 194 186 196 193 169 167 160 152 172 194 195 191 191 185 167 159 189 209 170 136 231 242 226 232 249 241 240 245 229 225 222 197 195 198 198 198 198 198 198 199
145 169 175 164 153 186 200 206 198 176 164 157 146 137 140 144 153 154 93 39 142 137 79 95 172 165 163 160 155 161 154 118 142 161 148 136 134 110 79 55 70 117 135 163 166 143 119 189 201 189 193 183 133 159 168 168 182 192 189 191 188 177 171 181 209 213 163 164 231 235 219 224 227 218 229 226 202 203 207 202 200 201 200 198 196 196 198 200
115 116 164 165 147 154 144 132 149 165 161 152 139 143 156 159 158 154 122 93 134 177 106 148 182 172 162 161 150 153 165 162 171 183 162 143 141 131 116 97 87 19 61 142 162 119 125 179 202 164 164 147 95 165 176 177 185 194 196 196 187 183 188 195 211 215 196 203 230 234 238 246 229 210 231 242 227 215 205 200 202 204 203 199 197 199 201 204
119 109 150 153 115 130 131 114 128 156 163 151 148 162 160 158 157 148 114 135 161 189 139 155 171 165 160 162 153 169 187 175 165 174 158 138 149 161 158 168 172 83 69 118 134 24 130 188 203 111 124 295 348 53 146 173 180 193 203 199 186 188 200 207 217 220 208 224 246 252 273 273 237 193 221 247 241 215 195 199 206 208 205 200 198 203 208 210
112 126 143 136 96 136 147 131 118 143 168 168 160 167 160 163 163 142 62 26 151 161 148 145 151 143 143 162 167 181 185 164 152 164 164 161 168 174 178 171 159 143 126 136 124 72 102 152 52 82 118 256 342 34 76 82 95 184 219 201 187 188 202 210 216 214 199 215 240 247 256 259 222 169 213 232 208 191 201 207 209 208 206 204 204 209 215 217
101 127 144 135 67 121 151 136 130 154 176 172 152 154 154 164 165 141 106 15 51 136 146 143 140 133 143 173 195 191 173 163 161 164 165 165 163 154 136 150 155 151 144 140 130 125 134 133 99 99 142 262 332 15 108 69 59 251 238 201 191 195 202 208 225 228 211 204 216 225 235 242 194 169 218 217 169 196 219 218 215 212 209 210 213 217 223 226
Height
1423 1425 1427 1431 1435 1439 1441 1445 1448 1452 1455 1459 1462 1466 1469 1473 1476 1479 1481 1484 1488 1491 1495 1498 1501 1503 1506 1509 1511 1514 1516 1518 1520 1521 1522 1524 1528 1531 1533 1535 1537 1539 1541 1542 1542 1542 1543 1544 1545 1546 1546 1545 1545 1545 1545 1546 1546 1548 1550 1554 1554 1552 1550 1544 1542 1543 1542 1546 1547 1548 1548 1549 1552 1553 1554 1556 1557 1558 1559 1560 1560 1562 1563 1563 1564 1565 1567 1570
1421 1423 1425 1428 1432 1436 1439 1442 1446 1450 1453 1457 1460 1464 1467 1471 1474 1477 1479 1483 1486 1490 1493 1496 1500 1502 1505 1508 1511 1513 1515 1517 1519 1519 1520 1525 1528 1530 1533 1535 1537 1539 1540 1542 1543 1544 1545 1545 1546 1546 1546 1546 1545 1545 1545 1545 1546 1547 1549 1552 1552 1548 1545 1541 1539 1539 1539 1543 1545 1547 1548 1548 1550 1552 1553 1555 1557 1558 1559 1561 1562 1562 1563 1564 1564 1566 1568 1570
1418 1420 1423 1426 1429 1433 1436 1440 1444 1447 1451 1455 1458 1462 1465 1469 1472 1475 1477 1481 1484 1488 1492 1495 1499 1501 1505 1507 1510 1513 1515 1517 1517 1516 1519 1524 1526 1529 1532 1534 1536 1538 1540 1541 1543 1545 1546 1546 1546 1546 1546 1546 1545 1544 1545 1544 1545 1545 1547 1550 1548 1544 1542 1540 1539 1537 1538 1540 1543 1546 1547 1548 1550 1551 1552 1554 1556 1557 1558 1560 1561 1562 1564 1564 1565 1566 1567 1569
1414 1417 1421 1424 1427 1430 1433 1438 1441 1444 1449 1452 1456 1460 1463 1467 1470 1473 1476 1479 1483 1487 1490 1494 1497 1500 1504 1507 1511 1513 1516 1518 1514 1512 1518 1522 1524 1528 1531 1533 1536 1537 1539 1540 1542 1544 1546 1547 1546 1545 1546 1545 1544 1544 1543 1544 1544 1544 1546 1547 1544 1542 1542 1541 1539 1538 1538 1539 1542 1545 1546 1548 1550 1551 1552 1553 1556 1558 1556 1556 1557 1559 1561 1563 1564 1566 1567 1568
1411 1414 1417 1421 1424 1427 1431 1436 1439 1442 1446 1450 1454 1458 1461 1465 1468 1472 1475 1477 1481 1485 1489 1493 1496 1499 1503 1506 1510 1512 1517 1519 1511 1510 1517 1520 1523 1527 1529 1532 1534 1536 1538 1539 1542 1544 1545 1546 1546 1545 1545 1544 1543 1543 1542 1542 1543 1544 1544 1543 1542 1541 1542 1541 1540 1539 1539 1540 1543 1545 1546 1547 1549 1551 1552 1552 1554 1555 1554 1554 1555 1557 1559 1561 1563 1565 1566 1568
1409 1411 1415 1419 1422 1425 1429 1434 1437 1440 1444 1447 1451 1456 1459 1463 1466 1469 1472 1476 1479 1484 1488 1491 1494 1498 1502 1506 1509 1512 1515 1515 1508 1509 1515 1518 1522 1525 1528 1531 1532 1535 1537 1539 1541 1543 1545 1545 1546 1545 1543 1542 1542 1541 1540 1540 1542 1544 1543 1542 1541 1540 1540 1540 1540 1540 1539 1540 1542 1544 1545 1547 1548 1550 1551 1552 1552 1552 1552 1554 1555 1557 1558 1560 1562 1564 1565 1566
1406 1409 1412 1416 1420 1423 1426 1431 1435 1438 1441 1445 1449 1453 1457 1461 1464 1467 1470 1474 1478 1482 1486 1489 1493 1496 1500 1504 1508 1510 1510 1508 1506 1508 1511 1515 1520 1523 1526 1529 1531 1533 1535 1538 1540 1542 1544 1544 1545 1544 1542 1541 1540 1539 1539 1539 1541 1543 1542 1541 1540 1539 1539 1539 1540 1539 1539 1540 1542 1544 1546 1547 1548 1549 1550 1551 1551 1552 1553 1553 1554 1556 1558 1560 1562 1563 1564 1565
1403 1407 1409 1413 1417 1420 1424 1429 1432 1436 1439 1443 1447 1451 1455 1459 1463 1465 1468 1473 1477 1481 1484 1488 1491 1495 1499 1502 1505 1508 1507 1506 1507 1508 1509 1513 1517 1520 1523 1526 1529 1531 1533 1536 1538 1541 1544 1543 1542 1542 1541 1540 1538 1538 1538 1539 1540 1541 1541 1540 1539 1539 1539 1539 1539 1540 1539 1540 1543 1544 1545 1547 1547 1548 1549 1550 1551 1552 1553 1554 1554 1556 1557 1559 1561 1562 1563 1564
1400 1403 1407 1411 1414 1418 1423 1427 1430 1434 1437 1442 1446 1450 1453 1457 1461 1464 1466 1471 1475 1479 1483 1486 1490 1494 1498 1501 1504 1505 1501 1504 1507 1508 1510 1511 1514 1517 1521 1524 1527 1530 1532 1535 1537 1541 1543 1541 1540 1540 1540 1538 1537 1537 1537 1539 1540 1538 1538 1539 1539 1539 1539 1540 1540 1539 1540 1541 1543 1544 1546 1547 1547 1548 1549 1550 1551 1552 1553 1554 1554 1555 1557 1558 1560 1561 1562 1563
1397 1400 1403 1408 1412 1416 1421 1424 1428 1432 1436 1440 1444 1448 1452 1456 1459 1462 1465 1469 1473 1478 1482 1485 1489 1493 1496 1499 1503 1501 1498 1504 1507 1508 1510 1511 1513 1515 1518 1522 1526 1528 1531 1533 1536 1539 1540 1539 1538 1539 1540 1537 1536 1536 1536 1538 1537 1535 1537 1538 1538 1539 1539 1540 1540 1539 1540 1542 1543 1544 1546 1547 1547 1548 1549 1549 1550 1551 1552 1553 1554 1555 1556 1557 1559 1560 1561 1562
1393 1396 1400 1404 1409 1413 1418 1422 1426 1430 1434 1438 1442 1446 1450 1454 1458 1461 1465 1468 1472 1477 1481 1485 1489 1492 1495 1498 1499 1498 1498 1504 1506 1507 1510 1510 1512 1514 1517 1521 1524 1526 1529 1531 1534 1536 1538 1537 1537 1540 1539 1536 1535 1535 1534 1535 1534 1534 1535 1538 1540 1539 1540 1540 1540 1540 1540 1542 1543 1544 1546 1547 1548 1548 1547 1547 1549 1551 1552 1553 1554 1554 1555 1556 1557 1559 1560 1561
1389 1393 1396 1400 1406 1411 1415 1420 1424 1428 1432 1436 1441 1445 1449 1453 1457 1461 1464 1467 1471 1476 1481 1485 1488 1491 1494 1496 1496 1497 1499 1502 1504 1507 1509 1510 1511 1513 1516 1519 1522 1525 1527 1530 1532 1534 1536 1536 1538 1540 1538 1535 1535 1535 1533 1533 1532 1532 1533 1538 1542 1540 1540 1540 1540 1540 1540 1542 1543 1544 1548 1549 1548 1546 1544 1545 1547 1550 1552 1552 1553 1553 1554 1554 1556 1557 1558 1559
1386 1390 1393 1397 1403 1408 1413 1418 1422 1426 1430 1435 1439 1443 1448 1452 1456 1460 1463 1466 1471 1476 1481 1485 1488 1491 1493 1494 1493 1496 1499 1501 1504 1506 1508 1510 1511 1513 1516 1518 1521 1524 1527 1529 1531 1534 1535 1535 1537 1538 1536 1535 1534 1533 1532 1531 1531 1532 1532 1536 1542 1543 1542 1540 1540 1541 1541 1543 1543 1544 1551 1550 1544 1544 1543 1544 1546 1548 1551 1551 1552 1552 1552 1553 1554 1555 1556 1558
1382 1387 1390 1395 1400 1405 1410 1415 1420 1425 1429 1433 1438 1442 1447 1451 1455 1460 1463 1467 1471 1476 1481 1484 1487 1490 1492 1491 1492 1494 1497 1501 1502 1504 1507 1508 1510 1512 1515 1517 1521 1523 1526 1529 1531 1533 1534 1535 1537 1536 1535 1534 1533 1532 1532 1532 1531 1532 1535 1536 1540 1544 1544 1540 1540 1541 1541 1543 1542 1544 1551 1547 1542 1543 1543 1543 1545 1546 1549 1550 1551 1551 1552 1552 1553 1554 1555 1556
1379 1383 1388 1392 1397 1403 1408 1413 1418 1423 1427 1431 1436 1441 1445 1450 1455 1460 1463 1467 1472 1476 1480 1483 1486 1490 1491 1490 1491 1493 1496 1499 1499 1501 1505 1507 1508 1511 1513 1517 1520 1523 1526 1529 1531 1533 1533 1533 1535 1534 1533 1531 1532 1533 1533 1533 1531 1531 1538 1542 1541 1541 1543 1540 1539 1540 1541 1543 1542 1545 1550 1546 1542 1542 1542 1543 1544 1545 1547 1548 1549 1550 1550 1551 1551 1552 1553 1554
1375 1380 1385 1390 1395 1400 1406 1411 1416 1421 1426 1430 1435 1439 1445 1450 1455 1460 1464 1468 1472 1477 1480 1483 1486 1489 1490 1490 1490 1492 1494 1495 1497 1500 1505 1507 1508 1510 1513 1518 1521 1524 1527 1529 1530 1531 1531 1531 1532 1531 1531 1530 1531 1533 1535 1536 1535 1532 1536 1543 1542 1540 1543 1543 1540 1539 1540 1542 1543 1544 1547 1546 1543 1542 1542 1543 1544 1545 1545 1546 1548 1548 1549 1549 1550 1551 1552 1553
1371 1376 1382 1387 1393 1398 1404 1409 1414 1420 1425 1429 1434 1438 1444 1450 1455 1460 1464 1468 1473 1476 1479 1482 1486 1488 1490 1489 1489 1489 1490 1492 1495 1499 1503 1507 1509 1511 1514 1518 1522 1525 1527 1529 1530 1529 1529 1529 1530 1530 1529 1529 1529 1531 1538 1541 1539 1536 1535 1539 1539 1539 1543 1544 1541 1539 1539 1541 1542 1544 1545 1543 1541 1541 1542 1542 1543 1544 1544 1545 1546 1546 1547 1548 1548 1549 1550 1551
1367 1373 1379 1384 1390 1395 1401 1407 1412 1418 1423 1428 1433 1437 1443 1450 1455 1459 1463 1467 1471 1477 1482 1484 1486 1490 1490 1486 1484 1485 1488 1490 1494 1498 1502 1505 1509 1512 1515 1518 1522 1525 1526 1528 1528 1527 1527 1527 1527 1529 1528 1528 1528 1530 1539 1542 1538 1536 1536 1537 1539 1540 1541 1541 1540 1538 1538 1541 1542 1544 1546 1543 1541 1542 1541 1541 1542 1543 1542 1543 1544 1544 1545 1546 1546 1547 1548 1549
1364 1370 1376 1381 1387 1393 1398 1404 1410 1415 1419 1426 1431 1436 1443 1449 1455 1459 1462 1464 1467 1474 1479 1478 1479 1482 1481 1479 1481 1484 1488 1492 1494 1498 1501 1504 1508 1512 1515 1518 1521 1523 1525 1526 1526 1524 1525 1526 1527 1528 1527 1526 1526 1529 1533 1533 1531 1532 1532 1533 1536 1541 1542 1540 1538 1536 1537 1541 1543 1543 1543 1542 1541 1541 1540 1540 1541 1541 1541 1541 1542 1543 1543 1543 1544 1545 1546 1547
1361 1367 1373 1379 1384 1390 1396 1401 1406 1410 1414 1419 1424 1431 1439 1444 1452 1460 1462 1462 1462 1465 1468 1468 1472 1474 1473 1476 1480 1484 1489 1493 1494 1497 1501 1503 1507 1511 1514 1517 1520 1522 1523 1523 1523 1522 1523 1526 1526 1525 1524 1524 1524 1527 1527 1527 1527 1528 1529 1531 1533 1537 1539 1539 1538 1537 1537 1540 1542 1541 1541 1541 1540 1539 1539 1539 1540 1540 1540 1540 1540 1540 1541 1541 1542 1543 1544 1545
1358 1365 1371 1376 1381 1387 1393 1398 1402 1406 1410 1413 1416 1420 1424 1428 1434 1440 1448 1459 1464 1464 1465 1468 1472 1474 1473 1475 1478 1481 1486 1491 1494 1497 1500 1504 1507 1509 1512 1514 1516 1519 1520 1520 1521 1520 1522 1524 1524 1522 1521 1522 1523 1524 1525 1525 1527 1527 1527 1530 1534 1536 1538 1539 1538 1537 1538 1539 1540 1541 1542 1540 1538 1538 1537 1538 1539 1539 1538 1538 1538 1538 1539 1539 1539 1541 1542 1543
1356 1362 1367 1373 1377 1383 1390 1395 1399 1404 1409 1413 1415 1416 1418 1419 1421 1421 1429 1449 1463 1465 1466 1470 1473 1474 1474 1476 1479 1481 1483 1487 1493 1496 1499 1503 1505 1507 1510 1512 1514 1517 1517 1518 1519 1520 1522 1522 1520 1519 1519 1520 1521 1522 1523 1525 1527 1527 1528 1530 1534 1536 1538 1540 1539 1538 1538 1539 1540 1542 1542 1539 1536 1536 1536 1535 1536 1535 1534 1535 1535 1536 1537 1537 1538 1539 1540 1541
1353 1358 1364 1369 1373 1381 1388 1393 1398 1403 1407 1410 1412 1417 1421 1423 1425 1426 1431 1447 1461 1466 1468 1470 1474 1475 1475 1475 1478 1480 1481 1483 1488 1493 1496 1499 1502 1505 1508 1510 1513 1516 1517 1516 1517 1520 1523 1519 1516 1517 1517 1518 1520 1520 1521 1525 1527 1527 1529 1531 1534 1535 1536 1538 1540 1540 1539 1540 1542 1542 1542 1539 1536 1535 1534 1532 1532 1531 1532 1533 1533 1534 1534 1535 1536 1537 1538 1539
1349 1354 1360 1367 1374 1380 1387 1393 1397 1401 1405 1408 1413 1417 1422 1425 1427 1429 1436 1450 1463 1466 1468 1471 1473 1474 1474 1474 1476 1477 1479 1482 1484 1488 1493 1496 1499 1503 1506 1508 1512 1516 1516 1514 1515 1518 1518 1514 1513 1515 1515 1517 1518 1520 1521 1525 1527 1526 1527 1529 1531 1533 1532 1533 1538 1540 1540 1542 1541 1541 1544 1539 1534 1534 1531 1528 1530 1530 1530 1531 1531 1532 1533 1533 1534 1535 1536 1537
1347 1353 1358 1366 1374 1378 1386 1394 1395 1399 1404 1409 1414 1418 1423 1427 1429 1430 1435 1452 1466 1466 1468 1472 1473 1473 1473 1474 1475 1476 1478 1481 1484 1486 1489 1493 1495 1499 1503 1505 1509 1513 1514 1513 1514 1516 1514 1511 1511 1513 1514 1515 1518 1520 1520 1523 1526 1525 1524 1523 1524 1528 1529 1532 1537 1540 1544 1546 1540 1541 1549 1542 1532 1532 1530 1526 1529 1529 1528 1529 1529 1530 1531 1531 1532 1533 1534 1535
1345 1351 1356 1365 1371 1377 1386 1390 1393 1399 1404 1409 1412 1417 1423 1427 1431 1431 1434 1454 1469 1468 1468 1470 1471 1471 1471 1474 1474 1475 1480 1483 1484 1486 1489 1492 1494 1496 1500 1502 1505 1509 1512 1513 1513 1514 1512 1510 1510 1511 1512 1514 1517 1519 1517 1519 1525 1526 1522 1521 1522 1525 1528 1533 1535 1537 1544 1546 1540 1541 1548 1544 1532 1527 1526 1526 1527 1527 1528 1528 1527 1528 1529 1529 1530 1531 1532 1533
1342 1349 1355 1362 1367 1372 1377 1381 1390 1396 1398 1404 1410 1416 1423 1426 1429 1429 1437 1460 1470 1465 1466 1467 1467 1468 1469 1472 1472 1473 1479 1480 1483 1488 1488 1491 1493 1494 1498 1499 1501 1505 1508 1512 1515 1513 1510 1509 1510 1509 1511 1514 1516 1517 1515 1516 1522 1524 1522 1521 1522 1524 1527 1532 1533 1534 1540 1542 1542 1542 1544 1546 1540 1527 1524 1526 1527 1527 1528 1527 1526 1527 1527 1527 1529 1530 1531 1532
1339 1347 1352 1358 1364 1368 1370 1374 1382 1387 1391 1399 1408 1416 1420 1423 1427 1427 1438 1461 1464 1457 1461 1462 1463 1466 1467 1470 1471 1470 1472 1473 1480 1488 1488 1490 1492 1493 1496 1498 1499 1502 1504 1508 1515 1513 1509 1508 1509 1508 1510 1514 1514 1513 1513 1513 1518 1521 1521 1521 1520 1521 1526 1531 1532 1535 1539 1541 1544 1545 1543 1548 1545 1530 1527 1528 1527 1528 1526 1524 1524 1524 1525 1526 1527 1528 1529 1530
1337 1345 1351 1358 1367 1372 1375 1376 1380 1387 1395 1402 1409 1415 1418 1422 1427 1427 1436 1452 1454 1451 1454 1458 1461 1464 1465 1468 1470 1470 1470 1472 1476 1482 1486 1489 1490 1491 1494 1496 1497 1501 1503 1505 1510 1511 1509 1509 1508 1507 1508 1510 1511 1513 1513 1511 1514 1518 1520 1521 1522 1524 1529 1533 1533 1535 1540 1543 1543 1544 1544 1547 1542 1530 1529 1530 1527 1526 1522 1521 1522 1522 1523 1524 1525 1526 1527 1528
1336 1343 1350 1358 1366 1372 1377 1382 1387 1393 1399 1404 1409 1413 1417 1423 1426 1432 1442 1445 1445 1449 1451 1455 1458 1459 1462 1466 1470 1470 1470 1472 1474 1479 1486 1488 1489 1491 1492 1495 1497 1500 1503 1506 1509 1510 1509 1508 1508 1508 1507 1507 1509 1512 1513 1511 1512 1515 1519 1522 1524 1528 1530 1533 1535 1535 1543 1548 1543 1545 1546 1546 1544 1531 1525 1526 1521 1518 1518 1519 1521 1521 1522 1523 1523 1525 1525 1526
1336 1343 1350 1357 1362 1368 1373 1379 1387 1394 1399 1404 1409 1413 1419 1424 1422 1431 1441 1434 1436 1448 1450 1452 1456 1456 1459 1462 1467 1469 1470 1472 1473 1477 1484 1486 1488 1489 1490 1494 1496 1501 1505 1506 1510 1512 1510 1509 1509 1508 1508 1508 1508 1510 1513 1512 1512 1514 1518 1522 1528 1534 1534 1537 1540 1540 1547 1550 1545 1550 1549 1547 1547 1531 1519 1519 1516 1514 1516 1515 1516 1518 1519 1521 1522 1523 1524 1524
1337 1344 1352 1359 1363 1368 1372 1376 1383 1391 1399 1402 1407 1413 1416 1421 1422 1426 1430 1427 1434 1445 1445 1447 1452 1454 1458 1460 1464 1467 1469 1473 1473 1474 1479 1483 1488 1487 1487 1488 1491 1499 1506 1506 1510 1514 1512 1510 1510 1509 1508 1507 1506 1510 1516 1516 1514 1515 1519 1523 1532 1544 1547 1548 1550 1549 1551 1550 1547 1551 1550 1547 1544 1527 1516 1517 1514 1513 1513 1510 1511 1514 1516 1518 1520 1521 1522 1523
1338 1346 1355 1361 1365 1370 1375 1380 1386 1392 1397 1400 1407 1411 1410 1417 1421 1419 1423 1426 1428 1433 1436 1440 1445 1449 1455 1460 1464 1466 1468 1472 1473 1474 1477 1481 1486 1487 1486 1486 1486 1492 1501 1506 1510 1514 1514 1514 1511 1509 1509 1507 1505 1509 1516 1518 1517 1517 1519 1523 1530 1545 1555 1556 1557 1556 1553 1549 1548 1551 1549 1546 1540 1524 1515 1515 1513 1512 1512 1509 1510 1511 1514 1516 1518 1519 1520 1521
1340 1348 1355 1361 1366 1373 1377 1383 1388 1391 1396 1401 1406 1408 1408 1414 1413 1410 1419 1424 1422 1426 1432 1437 1444 1450 1454 1458 1462 1463 1466 1472 1472 1473 1477 1481 1486 1487 1485 1484 1484 1486 1495 1504 1508 1508 1513 1516 1511 1509 1509 1508 1506 1508 1510 1512 1516 1517 1517 1519 1524 1533 1542 1547 1549 1548 1549 1550 1551 1553 1547 1537 1529 1520 1515 1514 1513 1513 1511 1510 1511 1511 1514 1516 1517 1519 1519 1520
1342 1349 1354 1360 1367 1374 1379 1384 1388 1390 1396 1401 1403 1404 1405 1406 1405 1407 1415 1418 1420 1428 1433 1437 1444 1452 1456 1458 1460 1459 1463 1470 1473 1473 1477 1478 1480 1482 1481 1481 1481 1482 1489 1499 1503 1503 1507 1511 1510 1509 1509 1507 1508 1508 1507 1509 1516 1519 1518 1519 1521 1522 1525 1537 1544 1542 1545 1550 1549 1549 1541 1528 1521 1516 1515 1516 1514 1513 1512 1511 1512 1512 1514 1516 1516 1518 1518 1519
1343 1349 1356 1362 1368 1375 1380 1384 1387 1391 1396 1397 1400 1401 1396 1391 1393 1399 1404 1408 1414 1422 1432 1442 1446 1450 1458 1461 1461 1460 1460 1465 1471 1474 1477 1477 1476 1477 1476 1476 1477 1478 1481 1489 1496 1498 1503 1510 1512 1511 1510 1508 1509 1509 1507 1509 1513 1517 1519 1519 1520 1519 1519 1531 1544 1546 1546 1544 1541 1541 1534 1525 1522 1516 1514 1517 1515 1514 1515 1513 1513 1513 1514 1515 1515 1516 1518 1519
1340 1348 1356 1363 1369 1375 1379 1382 1386 1392 1396 1395 1394 1393 1389 1386 1387 1391 1395 1401 1409 1415 1426 1440 1444 1445 1452 1457 1459 1459 1458 1463 1468 1470 1474 1477 1475 1472 1472 1472 1472 1474 1476 1480 1488 1492 1498 1511 1515 1511 1511 1511 1509 1509 1509 1508 1509 1514 1518 1516 1516 1521 1520 1523 1536 1546 1548 1543 1538 1538 1531 1523 1523 1519 1515 1518 1516 1514 1515 1514 1514 1514 1513 1514 1515 1516 1517 1518
1339 1348 1357 1364 1370 1375 1378 1383 1388 1392 1396 1395 1390 1386 1385 1386 1387 1389 1392 1398 1406 1412 1420 1432 1437 1438 1443 1448 1452 1453 1454 1460 1464 1466 1469 1472 1468 1465 1468 1470 1470 1472 1473 1475 1483 1487 1492 1508 1517 1513 1512 1512 1509 1510 1511 1510 1509 1510 1512 1511 1513 1521 1524 1524 1530 1539 1544 1542 1535 1534 1534 1527 1521 1516 1512 1513 1512 1511 1513 1514 1514 1513 1512 1513 1514 1515 1517 1517
1340 1351 1360 1366 1371 1374 1377 1383 1389 1393 1396 1393 1389 1386 1384 1385 1387 1387 1391 1396 1402 1410 1417 1422 1426 1432 1439 1442 1445 1450 1451 1454 1460 1463 1465 1466 1465 1463 1463 1466 1468 1471 1472 1472 1478 1483 1486 1500 1514 1515 1511 1512 1511 1511 1512 1511 1511 1511 1511 1512 1513 1515 1519 1520 1524 1529 1533 1536 1532 1531 1534 1525 1514 1509 1505 1503 1504 1505 1508 1510 1510 1509 1510 1511 1512 1513 1515 1516
1342 1351 1361 1366 1369 1373 1378 1384 1390 1393 1392 1387 1384 1383 1382 1383 1386 1387 1388 1392 1398 1405 1411 1415 1419 1426 1434 1438 1442 1447 1450 1453 1457 1460 1460 1460 1463 1463 1461 1462 1466 1469 1472 1473 1475 1481 1485 1492 1507 1515 1514 1513 1512 1511 1510 1508 1509 1511 1512 1514 1514 1515 1517 1518 1521 1523 1522 1526 1528 1529 1529 1517 1504 1504 1501 1496 1497 1499 1501 1504 1505 1506 1508 1509 1510 1511 1512 1514
1344 1351 1359 1364 1367 1371 1377 1384 1388 1387 1385 1383 1381 1381 1381 1382 1385 1387 1388 1391 1396 1400 1404 1410 1415 1421 1427 1434 1438 1442 1446 1452 1455 1456 1457 1458 1460 1462 1459 1459 1463 1466 1470 1474 1474 1478 1484 1490 1504 1515 1515 1513 1511 1510 1509 1508 1507 1507 1508 1509 1509 1511 1516 1519 1522 1523 1518 1519 1523 1525 1525 1511 1498 1500 1500 1496 1497 1497 1498 1500 1501 1504 1506 1507 1509 1510 1511 1513
1345 1350 1356 1361 1366 1370 1374 1379 1380 1380 1381 1381 1379 1379 1379 1381 1384 1388 1389 1391 1395 1398 1402 1407 1413 1418 1423 1427 1433 1438 1443 1448 1452 1452 1454 1455 1455 1456 1455 1456 1460 1463 1467 1473 1475 1475 1481 1492 1506 1515 1514 1511 1511 1511 1511 1510 1508 1507 1507 1506 1507 1509 1511 1514 1519 1519 1518 1521 1522 1523 1523 1509 1496 1500 1501 1498 1498 1497 1497 1499 1500 1502 1504 1506 1508 1509 1511 1513
1346 1350 1356 1362 1366 1369 1372 1376 1379 1381 1380 1377 1377 1378 1379 1380 1383 1387 1389 1391 1394 1397 1401 1406 1410 1415 1420 1423 1429 1435 1439 1445 1450 1449 1450 1453 1453 1452 1453 1454 1457 1462 1465 1470 1473 1473 1478 1489 1503 1514 1514 1510 1509 1509 1510 1510 1508 1507 1506 1506 1508 1508 1507 1508 1514 1514 1516 1519 1519 1523 1524 1507 1495 1499 1499 1497 1497 1495 1496 1498 1498 1501 1503 1504 1507 1508 1510 1511
1345 1350 1356 1363 1368 1370 1371 1371 1373 1377 1376 1375 1377 1378 1379 1380 1382 1384 1387 1389 1392 1395 1398 1403 1406 1410 1415 1419 1424 1429 1433 1441 1449 1448 1447 1450 1451 1451 1452 1453 1454 1459 1461 1463 1465 1468 1476 1486 1498 1511 1517 1516 1514 1512 1509 1509 1508 1506 1505 1506 1507 1506 1507 1511 1514 1514 1516 1517 1514 1519 1520 1504 1495 1499 1498 1496 1497 1494 1495 1497 1497 1499 1501 1503 1505 1507 1508 1510
1343 1350 1359 1364 1367 1369 1369 1367 1366 1370 1373 1374 1376 1377 1378 1381 1382 1383 1385 1388 1391 1392 1396 1401 1404 1407 1413 1418 1424 1428 1430 1435 1442 1446 1447 1448 1450 1452 1452 1452 1454 1455 1457 1459 1460 1464 1473 1481 1487 1497 1509 1511 1509 1505 1501 1502 1507 1507 1506 1506 1505 1505 1506 1508 1511 1514 1516 1518 1516 1513 1509 1499 1495 1498 1496 1495 1496 1494 1494 1496 1497 1498 1499 1501 1503 1504 1506 1507
1338 1346 1356 1365 1369 1370 1369 1368 1367 1370 1372 1372 1375 1377 1378 1381 1384 1384 1385 1389 1391 1391 1395 1400 1402 1407 1413 1418 1424 1430 1430 1431 1436 1441 1444 1446 1450 1453 1452 1453 1454 1454 1456 1459 1460 1463 1471 1477 1477 1480 1486 1488 1488 1489 1489 1493 1501 1504 1502 1501 1502 1502 1502 1504 1510 1513 1511 1515 1516 1507 1499 1496 1495 1495 1494 1494 1495 1495 1494 1495 1496 1497 1498 1499 1501 1502 1504 1506
1337 1340 1344 1352 1362 1368 1369 1369 1368 1368 1369 1369 1373 1376 1377 1380 1384 1385 1387 1389 1390 1391 1395 1400 1401 1405 1411 1416 1421 1427 1429 1431 1434 1436 1441 1445 1450 1453 1453 1454 1455 1455 1457 1458 1459 1462 1469 1475 1475 1474 1474 1476 1477 1482 1484 1487 1492 1494 1496 1499 1501 1502 1503 1504 1507 1504 1503 1512 1514 1502 1497 1499 1496 1493 1491 1491 1493 1495 1494 1494 1494 1494 1496 1497 1499 1501 1503 1505
1336 1339 1339 1340 1346 1354 1360 1363 1364 1366 1367 1368 1371 1374 1378 1381 1382 1385 1387 1389 1390 1390 1394 1400 1400 1401 1405 1409 1415 1424 1429 1432 1435 1437 1439 1444 1449 1452 1454 1455 1456 1456 1457 1458 1459 1461 1465 1471 1473 1474 1476 1477 1477 1480 1482 1483 1485 1488 1491 1495 1498 1501 1503 1502 1501 1498 1499 1506 1503 1494 1494 1496 1494 1491 1488 1487 1490 1491 1490 1491 1492 1493 1495 1496 1498 1500 1501 1503
1335 1339 1343 1344 1344 1348 1354 1359 1362 1365 1367 1368 1371 1374 1376 1378 1381 1384 1386 1388 1391 1390 1391 1397 1400 1401 1403 1405 1410 1419 1424 1425 1431 1434 1436 1441 1445 1448 1453 1456 1456 1457 1457 1458 1460 1461 1463 1470 1473 1473 1476 1479 1479 1481 1481 1481 1484 1486 1489 1491 1494 1497 1498 1496 1495 1493 1494 1496 1491 1489 1493 1492 1490 1490 1487 1486 1488 1488 1489 1491 1492 1493 1494 1495 1496 1498 1499 1500
1336 1338 1342 1345 1348 1352 1356 1360 1361 1365 1367 1367 1370 1373 1374 1376 1380 1383 1384 1386 1389 1391 1390 1393 1398 1402 1405 1405 1407 1412 1413 1412 1419 1427 1432 1437 1442 1444 1447 1449 1451 1456 1458 1458 1461 1461 1463 1470 1474 1473 1477 1481 1482 1483 1483 1483 1484 1485 1488 1491 1493 1496 1497 1495 1492 1490 1493 1495 1491 1492 1497 1492 1485 1487 1487 1486 1487 1488 1489 1490 1490 1490 1492 1493 1495 1496 1496 1497
1337 1339 1341 1344 1350 1353 1356 1359 1361 1365 1368 1368 1369 1372 1374 1376 1378 1381 1384 1385 1385 1387 1390 1392 1398 1403 1406 1407 1407 1408 1410 1411 1415 1420 1423 1427 1431 1435 1438 1441 1445 1452 1457 1459 1461 1461 1463 1471 1474 1474 1479 1484 1486 1488 1486 1485 1485 1487 1488 1489 1490 1492 1491 1490 1487 1486 1490 1493 1493 1496 1497 1487 1481 1484 1485 1485 1486 1487 1487 1486 1486 1488 1489 1490 1492 1493 1493 1494
1338 1341 1342 1345 1351 1355 1356 1358 1360 1363 1365 1366 1367 1370 1372 1376 1378 1378 1383 1388 1386 1386 1389 1392 1397 1403 1406 1409 1408 1407 1410 1413 1415 1418 1421 1423 1426 1430 1433 1437 1440 1444 1451 1457 1461 1462 1463 1467 1472 1475 1479 1487 1493 1493 1486 1485 1490 1488 1480 1477 1480 1483 1483 1485 1485 1485 1485 1486 1489 1491 1484 1477 1479 1483 1482 1482 1485 1485 1484 1483 1484 1485 1486 1487 1488 1489 1490 1490